Weather History for Chipley, FL

Change the Weather History Date:

Tuesday, December 24, 2013

  Actual Average (KMAI) Record (KMAI)
Temperature  
Mean Temperature 43 °F 51 °F  
Max Temperature 51 °F 62 °F 75 °F (2008)
Min Temperature 35 °F 39 °F 30 °F (1999)
Degree Days  
Heating Degree Days 22    
Month to date heating degree days  
Since 1 July heating degree days  
Cooling Degree Days 0    
Month to date cooling degree days  
Year to date cooling degree days  
Moisture  
Dew Point 27 °F    
Average Humidity 55    
Maximum Humidity 75    
Minimum Humidity 41    
Precipitation  
Precipitation 0.00 in 0.11 in 2.80 in (2002)
Month to date precipitation 3.13  
Year to date precipitation 52.80  
Sea Level Pressure  
Sea Level Pressure 30.46 in    
Wind  
Wind Speed 8 mph (NNE)    
Max Wind Speed 13 mph    
Max Gust Speed 21 mph    
Visibility 10 miles    
Events      
T = Trace of Precipitation, MM = Missing Value Source: NWS Daily Summary

Daily Weather History Graph

Daily Weather History Graph

Search for Another Location

Airport:

Trip Planner

Search our weather history database for the weather conditions in past years. The results will help you decide how hot, cold, wet, or windy it might be!

Date:

Astronomy

Dec. 24, 2013 Rise Set
Actual Time 6:37 AM CST 4:46 PM CST
Civil Twilight 6:10 AM CST 5:13 PM CST
Nautical Twilight 5:40 AM CST 5:43 PM CST
Astronomical Twilight 5:11 AM CST 6:13 PM CST
Moon 11:27 PM CST (12/24) 10:56 AM CST (12/24)
Length of Visible Light 11h 02m
Length of Day
10h 09m
Waning Gibbous, 58% of the Moon is Illuminated
Dec 24
Waning Gibbous
Dec 25
Last Quarter
Jan 1
New
Jan 7
First Quarter
Jan 15
Full

Hourly Weather History & Observations

Time (CST) Temp. Windchill Dew Point Humidity Pressure Visibility Wind Dir Wind Speed Gust Speed Precip Events Conditions
12:15 AM 39.2 °F 33.6 °F 28.4 °F 65% 30.47 in 10.0 mi North 8.1 mph 18.4 mph N/A   Clear
12:35 AM 39.2 °F 33.0 °F 28.4 °F 65% 30.47 in 10.0 mi North 9.2 mph 20.7 mph N/A   Clear
12:55 AM 39.2 °F 32.0 °F 28.4 °F 65% 30.47 in 10.0 mi North 11.5 mph 18.4 mph N/A   Clear
1:15 AM 39.2 °F 32.0 °F 28.4 °F 65% 30.47 in 10.0 mi North 11.5 mph 16.1 mph N/A   Clear
1:35 AM 37.4 °F 29.3 °F 28.4 °F 70% 30.47 in 10.0 mi NNE 12.7 mph 18.4 mph N/A   Clear
1:55 AM 37.4 °F 29.8 °F 28.4 °F 70% 30.47 in 10.0 mi NNE 11.5 mph 17.3 mph N/A   Clear
2:15 AM 37.4 °F 30.8 °F 28.4 °F 70% 30.47 in 10.0 mi North 9.2 mph - N/A   Clear
2:35 AM 37.4 °F 30.3 °F 28.4 °F 70% 30.47 in 10.0 mi North 10.4 mph 16.1 mph N/A   Clear
2:55 AM 37.4 °F 31.4 °F 28.4 °F 70% 30.46 in 10.0 mi North 8.1 mph - N/A   Clear
3:15 AM 37.4 °F 30.3 °F 28.4 °F 70% 30.47 in 10.0 mi NNE 10.4 mph - N/A   Clear
3:35 AM 37.4 °F 30.3 °F 28.4 °F 70% 30.47 in 10.0 mi North 10.4 mph 16.1 mph N/A   Clear
3:55 AM 37.4 °F 31.4 °F 26.6 °F 65% 30.48 in 10.0 mi North 8.1 mph - N/A   Clear
4:15 AM 37.4 °F 31.4 °F 26.6 °F 65% 30.48 in 10.0 mi North 8.1 mph - N/A   Clear
4:35 AM 37.4 °F 32.8 °F 26.6 °F 65% 30.48 in 10.0 mi NNE 5.8 mph - N/A   Clear
4:55 AM 35.6 °F 29.9 °F 28.4 °F 75% 30.48 in 10.0 mi North 6.9 mph - N/A   Clear
5:15 AM 35.6 °F 29.2 °F 26.6 °F 70% 30.48 in 10.0 mi North 8.1 mph - N/A   Clear
5:35 AM 35.6 °F 29.2 °F 26.6 °F 70% 30.49 in 10.0 mi NNE 8.1 mph - N/A   Clear
5:55 AM 35.6 °F 30.7 °F 26.6 °F 70% 30.49 in 10.0 mi NNE 5.8 mph - N/A   Clear
6:15 AM 35.6 °F 28.6 °F 26.6 °F 70% 30.50 in 10.0 mi North 9.2 mph - N/A   Clear
6:35 AM 35.6 °F 30.7 °F 26.6 °F 70% 30.50 in 10.0 mi North 5.8 mph - N/A   Clear
6:55 AM 35.6 °F 30.7 °F 26.6 °F 70% 30.51 in 10.0 mi North 5.8 mph - N/A   Clear
7:15 AM 35.6 °F 29.9 °F 26.6 °F 70% 30.52 in 10.0 mi North 6.9 mph - N/A   Clear
7:35 AM 35.6 °F 29.2 °F 26.6 °F 70% 30.53 in 10.0 mi North 8.1 mph - N/A   Clear
7:55 AM 37.4 °F 30.3 °F 26.6 °F 65% 30.53 in 10.0 mi North 10.4 mph - N/A   Clear
8:15 AM 37.4 °F 32.8 °F 26.6 °F 65% 30.53 in 10.0 mi North 5.8 mph - N/A   Clear
8:35 AM 37.4 °F 29.8 °F 26.6 °F 65% 30.53 in 10.0 mi NNE 11.5 mph 17.3 mph N/A   Clear
8:55 AM 37.4 °F 29.8 °F 24.8 °F 60% 30.53 in 10.0 mi NNE 11.5 mph 17.3 mph N/A   Clear
9:15 AM 39.2 °F 32.0 °F 24.8 °F 56% 30.53 in 10.0 mi North 11.5 mph 17.3 mph N/A   Clear
9:35 AM 39.2 °F 32.5 °F 24.8 °F 56% 30.54 in 10.0 mi NNE 10.4 mph 18.4 mph N/A   Clear
9:55 AM 41.0 °F 35.8 °F 26.6 °F 57% 30.53 in 10.0 mi North 8.1 mph 16.1 mph N/A   Clear
10:15 AM 42.8 °F 37.0 °F 26.6 °F 53% 30.53 in 10.0 mi North 10.4 mph 16.1 mph N/A   Clear
10:35 AM 42.8 °F 37.0 °F 24.8 °F 49% 30.53 in 10.0 mi NE 10.4 mph - N/A   Clear
10:55 AM 42.8 °F 37.5 °F 26.6 °F 53% 30.52 in 10.0 mi North 9.2 mph - N/A   Clear
11:15 AM 44.6 °F 39.7 °F 26.6 °F 49% 30.51 in 10.0 mi North 9.2 mph - N/A   Clear
11:35 AM 44.6 °F 39.7 °F 26.6 °F 49% 30.51 in 10.0 mi North 9.2 mph - N/A   Clear
11:55 AM 46.4 °F 43.5 °F 24.8 °F 43% 30.49 in 10.0 mi North 5.8 mph - N/A   Clear
12:15 PM 46.4 °F 43.5 °F 26.6 °F 46% 30.48 in 10.0 mi North 5.8 mph - N/A   Clear
12:35 PM 48.2 °F - 26.6 °F 43% 30.48 in 10.0 mi NNW 8.1 mph - N/A   Clear
12:55 PM 46.4 °F 42.9 °F 26.6 °F 46% 30.46 in 10.0 mi North 6.9 mph - N/A   Clear
1:15 PM 46.4 °F 43.5 °F 26.6 °F 46% 30.45 in 10.0 mi NW 5.8 mph - N/A   Clear
1:35 PM 48.2 °F - 28.4 °F 46% 30.44 in 10.0 mi NNW 4.6 mph - N/A   Clear
1:55 PM 48.2 °F - 28.4 °F 46% 30.43 in 10.0 mi North 8.1 mph - N/A   Clear
2:15 PM 48.2 °F - 28.4 °F 46% 30.42 in 10.0 mi North 8.1 mph - N/A   Clear
2:35 PM 48.2 °F - 28.4 °F 46% 30.42 in 10.0 mi North 4.6 mph - N/A   Clear
2:55 PM 50.0 °F - 28.4 °F 43% 30.42 in 10.0 mi NNW 6.9 mph - N/A   Clear
3:15 PM 50.0 °F - 28.4 °F 43% 30.41 in 10.0 mi NNE 8.1 mph - N/A   Clear
3:35 PM 50.0 °F - 30.2 °F 47% 30.41 in 10.0 mi North 3.5 mph - N/A   Clear
3:55 PM 51.8 °F - 28.4 °F 41% 30.41 in 10.0 mi NNW 3.5 mph - N/A   Clear
4:15 PM 50.0 °F - 28.4 °F 43% 30.41 in 10.0 mi North 5.8 mph - N/A   Clear
4:35 PM 50.0 °F - 28.4 °F 43% 30.41 in 10.0 mi North 5.8 mph - N/A   Clear
4:55 PM 50.0 °F - 28.4 °F 43% 30.41 in 10.0 mi NNE 4.6 mph - N/A   Clear
5:15 PM 50.0 °F - 28.4 °F 43% 30.40 in 10.0 mi North 5.8 mph - N/A   Clear
5:35 PM 48.2 °F - 28.4 °F 46% 30.41 in 10.0 mi NNE 5.8 mph - N/A   Clear
5:55 PM 48.2 °F - 28.4 °F 46% 30.41 in 10.0 mi NNE 4.6 mph - N/A   Clear
6:15 PM 48.2 °F - 26.6 °F 43% 30.42 in 10.0 mi North 5.8 mph - N/A   Clear
6:35 PM 48.2 °F - 26.6 °F 43% 30.42 in 10.0 mi NNE 5.8 mph - N/A   Clear
6:55 PM 48.2 °F - 26.6 °F 43% 30.43 in 10.0 mi NNE 4.6 mph - N/A   Clear
7:15 PM 48.2 °F - 26.6 °F 43% 30.43 in 10.0 mi North 3.5 mph - N/A   Clear
7:35 PM 48.2 °F - 26.6 °F 43% 30.43 in 10.0 mi NNE 5.8 mph - N/A   Clear
7:55 PM 46.4 °F 44.3 °F 26.6 °F 46% 30.43 in 10.0 mi North 4.6 mph - N/A   Clear
8:15 PM 46.4 °F 45.2 °F 28.4 °F 50% 30.43 in 10.0 mi NNE 3.5 mph - N/A   Clear
8:35 PM 46.4 °F 44.3 °F 28.4 °F 50% 30.43 in 10.0 mi NNE 4.6 mph - N/A   Clear
8:55 PM 46.4 °F 44.3 °F 28.4 °F 50% 30.43 in 10.0 mi NE 4.6 mph - N/A   Clear
9:15 PM 46.4 °F - 28.4 °F 50% 30.43 in 10.0 mi Calm Calm - N/A   Clear
9:35 PM 46.4 °F 44.3 °F 26.6 °F 46% 30.42 in 10.0 mi NE 4.6 mph - N/A   Clear
9:55 PM 44.6 °F 40.7 °F 26.6 °F 49% 30.42 in 10.0 mi NE 6.9 mph - N/A   Clear
10:15 PM 44.6 °F 41.4 °F 26.6 °F 49% 30.42 in 10.0 mi NE 5.8 mph - N/A   Clear
10:35 PM 44.6 °F 41.4 °F 26.6 °F 49% 30.42 in 10.0 mi ENE 5.8 mph - N/A   Clear
10:55 PM 44.6 °F 41.4 °F 24.8 °F 46% 30.41 in 10.0 mi NE 5.8 mph - N/A   Clear
11:15 PM 44.6 °F 41.4 °F 26.6 °F 49% 30.40 in 10.0 mi NNE 5.8 mph - N/A   Clear
11:35 PM 44.6 °F 41.4 °F 26.6 °F 49% 30.39 in 10.0 mi ENE 5.8 mph - N/A   Clear
11:55 PM 42.8 °F 38.6 °F 26.6 °F 53% 30.39 in 10.0 mi NE 6.9 mph - N/A   Clear